When you browse on this site, cookies collect data to enhance your experience and personalize the content and advertising you see.
Visit our Privacy Policy to learn more. By continuing to use the site, you agree to this use of cookies and data.
EN

Hourly Weather Golab

Today, 22 September, Tuesday

Time Temperature Precipitation Wind Pressure Humidity
00:00 +14°C° 0 mm 1 mps 753 mmHg 65%
01:00 +14°C° 0 mm 1 mps 753 mmHg 66%
02:00 +14°C° 0 mm 1 mps 753 mmHg 67%
03:00 +13°C° 0 mm 1 mps 753 mmHg 68%
04:00 +13°C° 0 mm 2 mps 753 mmHg 70%
05:00 +14°C° 0 mm 2 mps 753 mmHg 68%
06:00 +15°C° 0 mm 2 mps 753 mmHg 67%
07:00 +16°C° 0 mm 2 mps 753 mmHg 64%
08:00 +18°C° 0 mm 2 mps 753 mmHg 57%
09:00 +20°C° 0 mm 2 mps 753 mmHg 51%
10:00 +23°C° 0 mm 2 mps 752 mmHg 44%
11:00 +24°C° 0 mm 2 mps 752 mmHg 41%
12:00 +25°C° 0 mm 2 mps 752 mmHg 39%
13:00 +26°C° 0 mm 2 mps 752 mmHg 36%
14:00 +26°C° 0 mm 2 mps 751 mmHg 39%
15:00 +25°C° 0 mm 2 mps 751 mmHg 41%
16:00 +25°C° 0 mm 2 mps 750 mmHg 44%
17:00 +23°C° 0 mm 2 mps 750 mmHg 48%
18:00 +20°C° 0 mm 2 mps 750 mmHg 51%
19:00 +18°C° 0 mm 2 mps 750 mmHg 55%
20:00 +18°C° 0 mm 2 mps 750 mmHg 57%
21:00 +17°C° 0 mm 3 mps 750 mmHg 60%
22:00 +16°C° 0 mm 3 mps 749 mmHg 62%
23:00 +16°C° 0 mm 3 mps 749 mmHg 63%

Tomorrow, 23 September, Wednesday

Time Temperature Precipitation Wind Pressure Humidity
00:00 +16°C° 0 mm 3 mps 749 mmHg 64%
01:00 +15°C° 0 mm 2 mps 749 mmHg 65%
02:00 +15°C° 0 mm 2 mps 749 mmHg 67%
03:00 +14°C° 0 mm 2 mps 749 mmHg 68%
04:00 +14°C° 0 mm 2 mps 748 mmHg 70%
05:00 +14°C° 0 mm 3 mps 748 mmHg 69%
06:00 +14°C° 0 mm 3 mps 748 mmHg 67%
07:00 +16°C° 0 mm 3 mps 748 mmHg 66%
08:00 +18°C° 0 mm 3 mps 748 mmHg 60%
09:00 +20°C° 0 mm 3 mps 747 mmHg 53%
10:00 +22°C° 0 mm 3 mps 747 mmHg 47%
11:00 +25°C° 0 mm 3 mps 747 mmHg 44%
12:00 +26°C° 0 mm 3 mps 747 mmHg 41%
13:00 +28°C° 0 mm 3 mps 747 mmHg 38%
14:00 +27°C° 0 mm 3 mps 746 mmHg 41%
15:00 +27°C° 0 mm 2 mps 746 mmHg 43%
16:00 +27°C° 0 mm 2 mps 746 mmHg 46%
17:00 +25°C° 0 mm 2 mps 746 mmHg 51%
18:00 +23°C° 0 mm 2 mps 746 mmHg 56%
19:00 +21°C° 0 mm 1 mps 746 mmHg 61%
20:00 +20°C° 0 mm 2 mps 746 mmHg 60%
21:00 +20°C° 0 mm 2 mps 746 mmHg 60%
22:00 +20°C° 0 mm 2 mps 746 mmHg 59%
23:00 +19°C° 0 mm 2 mps 746 mmHg 61%

Day after tomorrow, 24 September, Thursday

Time Temperature Precipitation Wind Pressure Humidity
00:00 +19°C° 0 mm 2 mps 746 mmHg 63%
01:00 +18°C° 0 mm 2 mps 746 mmHg 64%
02:00 +17°C° 0 mm 2 mps 746 mmHg 65%
03:00 +17°C° 0 mm 2 mps 746 mmHg 67%
04:00 +16°C° 0 mm 2 mps 745 mmHg 68%
05:00 +17°C° 0 mm 2 mps 745 mmHg 67%
06:00 +17°C° 0 mm 2 mps 746 mmHg 65%
07:00 +18°C° 0 mm 2 mps 746 mmHg 64%
08:00 +19°C° 0 mm 2 mps 746 mmHg 59%
09:00 +21°C° 0 mm 2 mps 746 mmHg 54%
10:00 +24°C° 0 mm 2 mps 746 mmHg 48%
11:00 +25°C° 0 mm 2 mps 746 mmHg 47%
12:00 +26°C° 0 mm 2 mps 746 mmHg 45%
13:00 +27°C° 0 mm 2 mps 746 mmHg 43%
14:00 +27°C° 0 mm 2 mps 745 mmHg 45%
15:00 +26°C° 0 mm 2 mps 745 mmHg 47%
16:00 +26°C° 0 mm 1 mps 745 mmHg 49%
17:00 +25°C° 0 mm 2 mps 745 mmHg 53%
18:00 +23°C° 0 mm 2 mps 745 mmHg 57%
19:00 +20°C° 0 mm 2 mps 745 mmHg 61%
20:00 +20°C° 0 mm 2 mps 745 mmHg 65%
21:00 +19°C° 0 mm 2 mps 745 mmHg 69%
22:00 +19°C° 0 mm 2 mps 745 mmHg 72%
23:00 +18°C° 0 mm 2 mps 745 mmHg 74%

25 September, Friday

Time Temperature Precipitation Wind Pressure Humidity
00:00 +18°C° 0 mm 2 mps 745 mmHg 75%
01:00 +18°C° 0 mm 2 mps 745 mmHg 77%
02:00 +17°C° 0 mm 2 mps 744 mmHg 80%
03:00 +17°C° 0 mm 2 mps 744 mmHg 82%
04:00 +16°C° 0 mm 2 mps 744 mmHg 85%
05:00 +17°C° 0 mm 3 mps 743 mmHg 83%
06:00 +17°C° 0 mm 4 mps 743 mmHg 81%
07:00 +17°C° 0 mm 5 mps 742 mmHg 79%
08:00 +20°C° 0 mm 6 mps 742 mmHg 71%
09:00 +22°C° 0 mm 7 mps 742 mmHg 63%
10:00 +24°C° 0 mm 8 mps 741 mmHg 56%
11:00 +24°C° 0 mm 8 mps 741 mmHg 54%
12:00 +26°C° 0 mm 8 mps 740 mmHg 52%
13:00 +27°C° 0 mm 8 mps 740 mmHg 50%
14:00 +26°C° 0.1 mm 7 mps 740 mmHg 51%
15:00 +26°C° 0.1 mm 6 mps 739 mmHg 52%
16:00 +26°C° 0.1 mm 5 mps 739 mmHg 53%
17:00 +23°C° 0.2 mm 5 mps 739 mmHg 59%
18:00 +22°C° 0.2 mm 5 mps 739 mmHg 65%
19:00 +20°C° 0.2 mm 4 mps 738 mmHg 71%
20:00 +20°C° 0.2 mm 4 mps 738 mmHg 70%
21:00 +20°C° 0.2 mm 5 mps 738 mmHg 70%
22:00 +20°C° 0.2 mm 5 mps 738 mmHg 70%
23:00 +20°C° 0 mm 5 mps 738 mmHg 71%

26 September, Saturday

Time Temperature Precipitation Wind Pressure Humidity
00:00 +20°C° 0 mm 4 mps 738 mmHg 72%
01:00 +19°C° 0 mm 4 mps 738 mmHg 72%
02:00 +19°C° 0 mm 4 mps 737 mmHg 72%
03:00 +19°C° 0 mm 4 mps 737 mmHg 71%
04:00 +19°C° 0 mm 4 mps 737 mmHg 70%
05:00 +19°C° 0 mm 4 mps 736 mmHg 68%
06:00 +20°C° 0 mm 5 mps 736 mmHg 67%
07:00 +20°C° 0 mm 5 mps 736 mmHg 65%
08:00 +20°C° 0 mm 5 mps 736 mmHg 64%
09:00 +21°C° 0 mm 6 mps 736 mmHg 63%
10:00 +21°C° 0 mm 6 mps 736 mmHg 62%
11:00 +21°C° 0 mm 5 mps 736 mmHg 63%
12:00 +21°C° 0 mm 5 mps 736 mmHg 65%
13:00 +21°C° 0 mm 4 mps 736 mmHg 66%
14:00 +20°C° 0.4 mm 3 mps 736 mmHg 73%
15:00 +20°C° 0.4 mm 3 mps 736 mmHg 79%
16:00 +19°C° 0.4 mm 2 mps 736 mmHg 86%
17:00 +18°C° 0.4 mm 2 mps 736 mmHg 88%
18:00 +18°C° 0.4 mm 3 mps 736 mmHg 91%
19:00 +18°C° 0.4 mm 3 mps 736 mmHg 93%
20:00 +18°C° 0.6 mm 4 mps 735 mmHg 89%
21:00 +19°C° 0.6 mm 4 mps 735 mmHg 85%
22:00 +19°C° 0.6 mm 5 mps 734 mmHg 81%
23:00 +19°C° 0.2 mm 6 mps 734 mmHg 80%

27 September, Sunday

Time Temperature Precipitation Wind Pressure Humidity
00:00 +18°C° 0.2 mm 7 mps 733 mmHg 79%
01:00 +18°C° 0.2 mm 8 mps 733 mmHg 79%
02:00 +18°C° 0.1 mm 8 mps 733 mmHg 77%
03:00 +18°C° 0.1 mm 8 mps 732 mmHg 76%
04:00 +18°C° 0.1 mm 9 mps 732 mmHg 75%
05:00 +18°C° 0.5 mm 9 mps 732 mmHg 77%
06:00 +17°C° 0.5 mm 9 mps 733 mmHg 78%
07:00 +17°C° 0.5 mm 9 mps 733 mmHg 80%
08:00 +16°C° 0.8 mm 8 mps 733 mmHg 82%
09:00 +15°C° 0.8 mm 7 mps 733 mmHg 83%
10:00 +13°C° 0.8 mm 6 mps 734 mmHg 85%
11:00 +13°C° 0.1 mm 5 mps 734 mmHg 81%
12:00 +14°C° 0.1 mm 5 mps 734 mmHg 78%
13:00 +14°C° 0.1 mm 5 mps 734 mmHg 74%
14:00 +14°C° 0 mm 5 mps 735 mmHg 70%
15:00 +15°C° 0 mm 5 mps 735 mmHg 66%
16:00 +15°C° 0 mm 5 mps 735 mmHg 61%
17:00 +14°C° 0 mm 5 mps 736 mmHg 65%
18:00 +11°C° 0 mm 6 mps 736 mmHg 69%
19:00 +10°C° 0 mm 6 mps 737 mmHg 74%
20:00 +10°C° 0 mm 6 mps 737 mmHg 73%
21:00 +9°C° 0 mm 6 mps 738 mmHg 72%
22:00 +9°C° 0 mm 5 mps 738 mmHg 71%
23:00 +9°C° 0 mm 6 mps 739 mmHg 70%
Show more